Tracking 22881 objects as of 19-Apr-2021
HD Live streaming from Space Station
objects crossing your sky now

METEOR 3-5

Track METEOR 3-5 now!
10-day predictions
METEOR 3-5 is classified as:


NORAD ID: 21655
Int'l Code: 1991-056A
Perigee: 1,192.7 km
Apogee: 1,213.3 km
Inclination: 82.6 °
Period: 109.3 minutes
Semi major axis: 7573 km
RCS: 4.9525 m2 (large)
Launch date: August 15, 1991
Source: Commonwealth of Independent States (former USSR) (CIS)
Launch site: PLESETSK MISSILE AND SPACE COMPLEX (PKMTR)
aabbcc
Your satellite tracking list
Your tracking list is empty




NASA's NSSDC Master Catalog

Two Line Element Set (TLE):
1 21655U 91056A   21108.86763483  .00000044  00000-0  82726-4 0  9994
2 21655  82.5605  31.5963 0013581 167.5056 192.6406 13.17096205426534
Source of the keplerian elements: AFSPC